Weather in Koltushi

Russia / Saint-Petersburg and Leningrad Oblast     59°56′04″N   30°39′39″E
temp.,
°C
wind,
m/s
gust,
m/s
humid.,
%
clouds,
%
prec.,
mm/h
press.,
hPa
HPBL,
m
21 april, wed
wed2100:00+4ese257092 0.0 101696
03:00+4ese2681100 0.0 1014168
06:00+4e2582100 0.0 1011166
09:00+4ne2596100 0.4 1009652
12:00+3nne3697100 1.1 1006432
15:00+2n2499100 2.3 1004212
18:00+2nw1399100 0.4 1003184
21:00+2wsw2496100 0.4 1003445
22 april, thu
thu2200:00+2ssw2596100 0.0 1002306
03:00+3s1495100 0.1 1002181
06:00+2ssw239747 0.0 100369
09:00+7ssw248079 0.0 1003354
12:00+12sw465366 0.0 10041361
15:00+12sw4853100 0.0 10051985
18:00+11wsw115988 0.0 1006110
21:00+8sse2680100 0.3 1005162
23 april, fri
fri2300:00+7s4892100 6.8 1004775
03:00+6s3893100 7.5 1004537
06:00+5s3989100 0.0 1004402
09:00+7s4772100 0.0 1005946
12:00+8ssw6962100 0.8 10051774
15:00+8ssw695293 1.1 10062027
18:00+8ssw48625 0.7 10071570
21:00+4sse27807 0.8 1008195
24 april, sat
sat2400:00+3sse288879 0.0 1008219
03:00+1s279382 0.0 1008219
06:000s2595100 0.0 1008184
09:00+3ssw1275100 0.0 1008448
12:00+6wsw1256100 0.0 1008991
15:00+8n1150100 0.0 10071491
18:00+7ne2358100 0.0 1007740
21:00+3n1381100 0.1 100688
25 april, sun
sun2500:00+2nw2484100 0.0 1005118
03:00+2wnw2788100 0.0 1003334
06:00+2wnw3897100 0.8 1002460
09:00+3wnw3797100 1.8 1000545
12:00+2nw2598100 2.6 1000343
15:00+3wnw2498100 5.1 1001208
18:00+5nnw2597100 0.3 1001186
21:00+5nnw239664 0.4 100272